When you browse on this site, cookies collect data to enhance your experience and personalize the content and advertising you see.
Visit our Privacy Policy to learn more. By continuing to use the site, you agree to this use of cookies and data.
  • In Deutschland
  • Länderverzeichnis
  • Für 7 Tage
  • Wassertemperatur
  • Wetterkarte
  • Widgets
  • user-avatar
    Anmelden

    Stündliche Wetter Sylchet

    Heute, 17 September, Dienstag

    Zeit Temperatur Niederschläge Wind Luftdruck Luftfeuchtigkeit
    00:00 +26°C° 0 mm 0 m/S 754 mmHg 82%
    01:00 +26°C° 0.3 mm 0 m/S 753 mmHg 84%
    02:00 +26°C° 0.3 mm 0 m/S 753 mmHg 85%
    03:00 +25°C° 0.3 mm 0 m/S 753 mmHg 87%
    04:00 +25°C° 0.1 mm 0 m/S 753 mmHg 88%
    05:00 +27°C° 0.1 mm 1 m/S 753 mmHg 90%
    06:00 +27°C° 0 mm 1 m/S 754 mmHg 93%
    07:00 +28°C° 0 mm 1 m/S 754 mmHg 87%
    08:00 +30°C° 0 mm 1 m/S 754 mmHg 82%
    09:00 +31°C° 0 mm 1 m/S 755 mmHg 76%
    10:00 +32°C° 0.4 mm 1 m/S 754 mmHg 71%
    11:00 +34°C° 0.4 mm 1 m/S 754 mmHg 66%
    12:00 +33°C° 0 mm 0 m/S 755 mmHg 60%
    13:00 +33°C° 0.1 mm 0 m/S 754 mmHg 58%
    14:00 +33°C° 0.1 mm 0 m/S 754 mmHg 57%
    15:00 +34°C° 0.1 mm 0 m/S 753 mmHg 55%
    16:00 +34°C° 0 mm 1 m/S 753 mmHg 60%
    17:00 +33°C° 0 mm 1 m/S 753 mmHg 65%
    18:00 +31°C° 0 mm 1 m/S 754 mmHg 70%
    19:00 +31°C° 0 mm 1 m/S 754 mmHg 72%
    20:00 +30°C° 0 mm 1 m/S 754 mmHg 75%
    21:00 +30°C° 0 mm 1 m/S 755 mmHg 77%
    22:00 +27°C° 0 mm 0 m/S 755 mmHg 79%
    23:00 +27°C° 0 mm 0 m/S 755 mmHg 81%

    Morgen, 18 September, Mittwoch

    Zeit Temperatur Niederschläge Wind Luftdruck Luftfeuchtigkeit
    00:00 +27°C° 0 mm 0 m/S 755 mmHg 83%
    01:00 +27°C° 0 mm 0 m/S 755 mmHg 84%
    02:00 +26°C° 0 mm 0 m/S 755 mmHg 84%
    03:00 +28°C° 0 mm 1 m/S 755 mmHg 85%
    04:00 +28°C° 0 mm 1 m/S 755 mmHg 86%
    05:00 +28°C° 0 mm 1 m/S 756 mmHg 88%
    06:00 +28°C° 0 mm 1 m/S 756 mmHg 89%
    07:00 +29°C° 0 mm 1 m/S 756 mmHg 82%
    08:00 +31°C° 0 mm 1 m/S 757 mmHg 76%
    09:00 +31°C° 0 mm 0 m/S 757 mmHg 70%
    10:00 +34°C° 0 mm 1 m/S 756 mmHg 64%
    11:00 +35°C° 0 mm 1 m/S 756 mmHg 59%
    12:00 +37°C° 0 mm 1 m/S 755 mmHg 54%
    13:00 +37°C° 0 mm 1 m/S 755 mmHg 52%
    14:00 +37°C° 0 mm 1 m/S 754 mmHg 50%
    15:00 +37°C° 0 mm 1 m/S 753 mmHg 48%
    16:00 +36°C° 0 mm 1 m/S 753 mmHg 53%
    17:00 +34°C° 0 mm 1 m/S 753 mmHg 58%
    18:00 +33°C° 0 mm 1 m/S 754 mmHg 63%
    19:00 +32°C° 0 mm 1 m/S 754 mmHg 66%
    20:00 +32°C° 0 mm 1 m/S 755 mmHg 69%
    21:00 +29°C° 0 mm 0 m/S 755 mmHg 72%
    22:00 +29°C° 0 mm 0 m/S 755 mmHg 73%
    23:00 +28°C° 0 mm 0 m/S 756 mmHg 75%

    übermorgen, 19 September, Donnerstag

    Zeit Temperatur Niederschläge Wind Luftdruck Luftfeuchtigkeit
    00:00 +28°C° 0 mm 0 m/S 756 mmHg 76%
    01:00 +27°C° 0.6 mm 0 m/S 755 mmHg 79%
    02:00 +27°C° 0.6 mm 0 m/S 755 mmHg 81%
    03:00 +29°C° 0.6 mm 1 m/S 755 mmHg 84%
    04:00 +28°C° 1.9 mm 1 m/S 755 mmHg 86%
    05:00 +28°C° 1.9 mm 1 m/S 756 mmHg 88%
    06:00 +28°C° 1.9 mm 1 m/S 756 mmHg 91%
    07:00 +29°C° 0.8 mm 1 m/S 756 mmHg 87%
    08:00 +30°C° 0.8 mm 1 m/S 756 mmHg 84%
    09:00 +29°C° 0.8 mm 0 m/S 757 mmHg 80%
    10:00 +31°C° 0.4 mm 0 m/S 756 mmHg 72%
    11:00 +35°C° 0.4 mm 1 m/S 756 mmHg 64%
    12:00 +36°C° 0.4 mm 1 m/S 755 mmHg 56%
    13:00 +37°C° 0 mm 1 m/S 754 mmHg 54%
    14:00 +37°C° 0 mm 1 m/S 754 mmHg 52%
    15:00 +37°C° 0 mm 1 m/S 753 mmHg 50%
    16:00 +36°C° 0 mm 1 m/S 753 mmHg 55%
    17:00 +34°C° 0 mm 1 m/S 753 mmHg 60%
    18:00 +33°C° 0 mm 1 m/S 753 mmHg 65%
    19:00 +32°C° 0 mm 1 m/S 754 mmHg 68%
    20:00 +32°C° 0 mm 1 m/S 754 mmHg 71%
    21:00 +31°C° 0 mm 1 m/S 755 mmHg 74%
    22:00 +31°C° 0 mm 1 m/S 755 mmHg 75%
    23:00 +30°C° 0 mm 1 m/S 755 mmHg 77%

    20 September, Freitag

    Zeit Temperatur Niederschläge Wind Luftdruck Luftfeuchtigkeit
    00:00 +30°C° 0 mm 1 m/S 755 mmHg 78%
    01:00 +30°C° 0.2 mm 1 m/S 755 mmHg 80%
    02:00 +29°C° 0.2 mm 1 m/S 754 mmHg 82%
    03:00 +29°C° 0.2 mm 1 m/S 754 mmHg 83%
    04:00 +29°C° 0 mm 1 m/S 754 mmHg 85%
    05:00 +28°C° 0 mm 1 m/S 755 mmHg 86%
    06:00 +28°C° 0 mm 1 m/S 755 mmHg 87%
    07:00 +30°C° 0 mm 1 m/S 755 mmHg 82%
    08:00 +31°C° 0 mm 1 m/S 756 mmHg 76%
    09:00 +33°C° 0 mm 1 m/S 756 mmHg 71%
    10:00 +34°C° 0 mm 1 m/S 755 mmHg 66%
    11:00 +35°C° 0 mm 1 m/S 755 mmHg 60%
    12:00 +37°C° 0 mm 1 m/S 755 mmHg 54%
    13:00 +37°C° 0 mm 1 m/S 754 mmHg 52%
    14:00 +37°C° 0 mm 1 m/S 753 mmHg 50%
    15:00 +37°C° 0 mm 1 m/S 752 mmHg 47%
    16:00 +36°C° 0 mm 1 m/S 752 mmHg 53%
    17:00 +34°C° 0 mm 1 m/S 752 mmHg 58%
    18:00 +33°C° 0 mm 1 m/S 752 mmHg 64%
    19:00 +32°C° 0 mm 1 m/S 753 mmHg 67%
    20:00 +31°C° 0 mm 1 m/S 753 mmHg 70%
    21:00 +31°C° 0 mm 1 m/S 754 mmHg 73%
    22:00 +30°C° 0 mm 1 m/S 754 mmHg 75%
    23:00 +30°C° 0 mm 1 m/S 754 mmHg 77%

    21 September, Samstag

    Zeit Temperatur Niederschläge Wind Luftdruck Luftfeuchtigkeit
    00:00 +30°C° 0 mm 1 m/S 754 mmHg 79%
    01:00 +29°C° 0 mm 1 m/S 754 mmHg 80%
    02:00 +29°C° 0 mm 1 m/S 753 mmHg 82%
    03:00 +29°C° 0 mm 1 m/S 753 mmHg 83%
    04:00 +29°C° 0 mm 1 m/S 753 mmHg 85%
    05:00 +28°C° 0 mm 1 m/S 754 mmHg 86%
    06:00 +28°C° 0 mm 1 m/S 754 mmHg 87%
    07:00 +29°C° 0.1 mm 1 m/S 754 mmHg 83%
    08:00 +31°C° 0.1 mm 2 m/S 755 mmHg 79%
    09:00 +32°C° 0.1 mm 2 m/S 755 mmHg 74%
    10:00 +34°C° 0.1 mm 1 m/S 755 mmHg 69%
    11:00 +35°C° 0.1 mm 1 m/S 754 mmHg 63%
    12:00 +36°C° 0.1 mm 1 m/S 754 mmHg 58%
    13:00 +36°C° 0 mm 1 m/S 753 mmHg 58%
    14:00 +36°C° 0 mm 1 m/S 752 mmHg 58%
    15:00 +36°C° 0 mm 1 m/S 752 mmHg 58%
    16:00 +34°C° 0.1 mm 1 m/S 752 mmHg 64%
    17:00 +33°C° 0.1 mm 1 m/S 752 mmHg 69%
    18:00 +32°C° 0.1 mm 1 m/S 752 mmHg 75%
    19:00 +31°C° 0.2 mm 1 m/S 753 mmHg 77%
    20:00 +31°C° 0.2 mm 2 m/S 753 mmHg 79%
    21:00 +30°C° 0.2 mm 2 m/S 754 mmHg 80%
    22:00 +30°C° 0.8 mm 1 m/S 754 mmHg 83%
    23:00 +29°C° 0.8 mm 1 m/S 754 mmHg 85%

    22 September, Sonntag

    Zeit Temperatur Niederschläge Wind Luftdruck Luftfeuchtigkeit
    00:00 +29°C° 0.8 mm 1 m/S 754 mmHg 87%
    01:00 +28°C° 2 mm 1 m/S 754 mmHg 89%
    02:00 +28°C° 2 mm 1 m/S 754 mmHg 91%
    03:00 +28°C° 2 mm 1 m/S 753 mmHg 93%
    04:00 +28°C° 3.3 mm 2 m/S 754 mmHg 93%
    05:00 +28°C° 3.3 mm 2 m/S 754 mmHg 94%
    06:00 +27°C° 3.3 mm 2 m/S 754 mmHg 94%
    07:00 +28°C° 1.5 mm 2 m/S 755 mmHg 92%
    08:00 +28°C° 1.5 mm 3 m/S 755 mmHg 90%
    09:00 +28°C° 1.5 mm 3 m/S 756 mmHg 88%
    10:00 +30°C° 0.2 mm 2 m/S 755 mmHg 83%
    11:00 +31°C° 0.2 mm 2 m/S 755 mmHg 78%
    12:00 +32°C° 0.2 mm 1 m/S 755 mmHg 72%
    13:00 +32°C° 0.2 mm 2 m/S 754 mmHg 71%
    14:00 +32°C° 0.2 mm 2 m/S 754 mmHg 70%
    15:00 +34°C° 0.2 mm 2 m/S 753 mmHg 69%
    16:00 +32°C° 0.1 mm 2 m/S 753 mmHg 73%
    17:00 +31°C° 0.1 mm 2 m/S 753 mmHg 78%
    18:00 +30°C° 0.1 mm 2 m/S 753 mmHg 83%
    19:00 +29°C° 0.6 mm 2 m/S 754 mmHg 85%
    20:00 +29°C° 0.6 mm 2 m/S 755 mmHg 86%
    21:00 +28°C° 0.6 mm 2 m/S 755 mmHg 88%
    22:00 +28°C° 0.2 mm 1 m/S 755 mmHg 89%
    23:00 +28°C° 0.2 mm 1 m/S 756 mmHg 89%
    Mehr zeigen